Weather History for Mosinee, WI

Change the Weather History Date:

Thursday, May 9, 2013

  Actual Average Record
Temperature  
Mean Temperature 50 °F -  
Max Temperature 59 °F 60 °F 75 °F (2007)
Min Temperature 41 °F 40 °F 33 °F (2001)
Degree Days  
Heating Degree Days 15    
Moisture  
Dew Point 46 °F    
Average Humidity 86    
Maximum Humidity 100    
Minimum Humidity 51    
Precipitation  
Precipitation 0.00 in - - ()
Sea Level Pressure  
Sea Level Pressure 29.99 in    
Wind  
Wind Speed 5 mph (NNE)    
Max Wind Speed 20 mph    
Max Gust Speed 24 mph    
Visibility 9 miles    
Events Rain    
Averages and records for this station are not official NWS values.
T = Trace of Precipitation, MM = Missing Value Source: NWS Daily Summary

Daily Weather History Graph

Daily Weather History Graph

Search for Another Location

Airport:

Trip Planner

Search our weather history database for the weather conditions in past years. The results will help you decide how hot, cold, wet, or windy it might be!

Date:

Astronomy

May. 09, 2013 Rise Set
Actual Time 5:37 AM CDT 8:13 PM CDT
Civil Twilight 5:03 AM CDT 8:47 PM CDT
Nautical Twilight 4:22 AM CDT 9:29 PM CDT
Astronomical Twilight 3:34 AM CDT 10:17 PM CDT
Moon 5:23 AM CDT (5/9) 8:08 PM CDT (5/9)
Length of Visible Light 15h 43m
Length of Day
14h 36m
Waning Crescent, 0% of the Moon is Illuminated
May 9
Waning Crescent
May 9
New
May 17
First Quarter
May 24
Full
May 31
Last Quarter

Hourly Weather History & Observations

Time (CDT) Temp. Windchill Dew Point Humidity Pressure Visibility Wind Dir Wind Speed Gust Speed Precip Events Conditions
1:15 AM 59.0 °F - 41.0 °F 51% 29.96 in 10.0 mi Calm Calm - N/A   Clear
2:35 AM 57.2 °F - 42.8 °F 59% 29.95 in 10.0 mi Calm Calm - N/A   Clear
3:15 AM 55.4 °F - 42.8 °F 63% 29.96 in 10.0 mi Calm Calm - N/A   Clear
3:35 AM 53.6 °F - 42.8 °F 67% 29.95 in 10.0 mi Calm Calm - N/A   Clear
4:35 AM 53.6 °F - 44.6 °F 72% 29.95 in 10.0 mi NNE 4.6 mph - N/A   Clear
4:55 AM 51.8 °F - 42.8 °F 71% 29.96 in 10.0 mi North 3.5 mph - N/A   Clear
5:45 AM 53.6 °F - 44.6 °F 72% 29.97 in 10.0 mi West 3.5 mph - N/A   Mostly Cloudy
6:50 AM 55.4 °F - 44.6 °F 67% 29.97 in 10.0 mi NE 4.6 mph - N/A   Scattered Clouds
7:50 AM 57.2 °F - 46.4 °F 67% 29.96 in 10.0 mi NNE 6.9 mph - N/A   Light Drizzle
8:50 AM 57.2 °F - 46.4 °F 67% 29.97 in 10.0 mi North 5.8 mph - N/A   Mostly Cloudy
9:50 AM 57.2 °F - 46.4 °F 67% 29.99 in 10.0 mi North 4.6 mph - N/A   Light Drizzle
10:50 AM 55.4 °F - 51.8 °F 88% 30.01 in 10.0 mi WNW 3.5 mph - N/A Rain Light Rain
12:50 PM 53.6 °F - 53.6 °F 100% 30.00 in 7.0 mi North 10.4 mph - N/A Rain Rain
1:45 PM 53.6 °F - 53.6 °F 100% 29.98 in 10.0 mi North 13.8 mph 19.6 mph N/A Rain Rain
2:45 PM 53.6 °F - 53.6 °F 100% 30.00 in 10.0 mi NNE 6.9 mph - N/A   Overcast
3:45 PM 53.6 °F - 53.6 °F 100% 29.99 in 10.0 mi North 11.5 mph - N/A   Drizzle
4:45 PM 53.6 °F - 53.6 °F 100% 29.98 in 10.0 mi NNE 11.5 mph - N/A   Drizzle
5:45 PM 53.6 °F - 53.6 °F 100% 29.98 in 7.0 mi NNE 12.7 mph 19.6 mph N/A Rain Light Rain
6:45 PM 51.8 °F - 51.8 °F 100% 29.99 in 7.0 mi NNE 15.0 mph - N/A Rain Rain
7:45 PM 48.2 °F - 48.2 °F 100% 30.00 in 7.0 mi NNE 19.6 mph 24.2 mph N/A Rain Rain
8:45 PM 44.6 °F 38.1 °F 44.6 °F 100% 30.02 in 7.0 mi NNE 13.8 mph 23.0 mph N/A Rain Light Rain
9:45 PM 42.8 °F 36.6 °F 42.8 °F 100% 30.04 in 10.0 mi NNE 11.5 mph 18.4 mph N/A Rain Light Rain
10:15 PM 41.0 °F 34.3 °F 41.0 °F 100% 30.03 in 10.0 mi NNE 11.5 mph - N/A Rain Rain
10:35 PM 41.0 °F 33.9 °F 41.0 °F 100% 30.04 in 10.0 mi NNE 12.7 mph - N/A   Drizzle
10:55 PM 41.0 °F 34.7 °F 41.0 °F 100% 30.03 in 10.0 mi NNE 10.4 mph - N/A   Drizzle
11:15 PM 41.0 °F 34.7 °F 41.0 °F 100% 30.03 in 10.0 mi NNE 10.4 mph 21.9 mph N/A   Drizzle
11:35 PM 41.0 °F 33.9 °F 41.0 °F 100% 30.03 in 10.0 mi NNE 12.7 mph 19.6 mph N/A   Drizzle